{"data":{"norad_id":67406,"epoch":"2026-05-25T01:15:44.106048Z","epoch_age_seconds":70749,"freshness":"FRESH","line1":"1 67406U 26005C   26145.05259382  .00020607  00000+0  75601-3 0  9994","line2":"2 67406  42.9976 166.8676 0000311 187.6547 172.4300 15.27590546 20378","mean_motion":15.27590546,"eccentricity":3.11e-5,"inclination_deg":42.9976,"raan_deg":166.8676,"arg_perigee_deg":187.6547,"mean_anomaly_deg":172.43,"bstar":0.00075601,"rev_number":2037,"period_min":94.266097925956,"perigee_km":482.80413579792,"apogee_km":483.23089960892,"semimajor_km":6861.1545177034,"source":"CELESTRAK","updated_at":"2026-05-25T13:38:21.552394Z"}}